GW4589 Weather Reports


Display with metric or nautical units.
time (UTC)temp
F
wind
direction
speed
MPH
gust
MPH
rain 1hr
in
rain 24hr
in
rain mn
in
humidity
%
barometer
mb
20260504214643 62 174 2.0 2.0 0.00 0.01 0.01 45 1010.4
20260504214139 62 227 3.0 4.0 0.00 0.01 0.01 44 1010.4
20260504213636 62 228 1.0 1.0 0.00 0.01 0.01 47 1010.5
20260504213133 62 207 1.0 1.0 0.00 0.01 0.01 49 1010.6
20260504212629 61 201 1.0 2.0 0.00 0.01 0.01 51 1010.4
20260504212126 60 304 1.0 1.0 0.00 0.01 0.01 53 1010.4
20260504211624 60 201 1.0 1.0 0.00 0.01 0.01 51 1010.4
20260504211120 59 100 1.0 1.0 0.00 0.01 0.01 52 1010.1
20260504210618 59 176 0.0 0.0 0.07 0.01 0.01 54 1010.4
20260504210114 59 53 2.0 3.0 0.07 0.01 0.01 51 1010.5
20260504205612 58 48 4.0 4.0 0.07 0.01 0.01 56 1011.1
20260504205109 60 274 3.0 4.0 0.00 0.00 0.00 49 1011.2
20260504204608 61 287 5.0 6.0 0.00 0.00 0.00 44 1011.2
20260504204106 61 230 2.0 3.0 0.00 0.00 0.00 46 1011.4
20260504203604 61 185 1.0 1.0 0.00 0.00 0.00 45 1011.4
20260504203101 60 180 0.0 0.0 0.00 0.00 0.00 46 1011.5
20260504202556 60 55 3.0 4.0 0.00 0.00 0.00 45 1011.2
20260504202054 61 58 2.0 2.0 0.00 0.00 0.00 46 1011.4
20260504201550 61 29 3.0 4.0 0.00 0.00 0.00 45 1011.4
20260504201048 61 42 5.0 7.0 0.00 0.00 0.00 44 1011.3
20260504200544 61 65 2.0 3.0 0.00 0.00 0.00 44 1011.2
20260504200042 61 26 8.0 10.0 0.00 0.00 0.00 45 1011.2
20260504195538 60 332 2.0 2.0 0.00 0.00 0.00 49 1011.2
20260504195034 60 288 3.0 6.0 0.00 0.00 0.00 46 1011.3
20260504194531 62 207 2.0 3.0 0.00 0.00 0.00 44 1011.1
20260504194026 63 204 0.0 1.0 0.00 0.00 0.00 40 1010.7
20260504193523 63 357 3.0 3.0 0.00 0.00 0.00 37 1010.9
20260504193022 65 286 2.0 6.0 0.00 0.00 0.00 35 1010.6
20260504192520 66 238 2.0 2.0 0.00 0.00 0.00 34 1010.2
20260504192018 66 168 0.0 0.0 0.00 0.00 0.00 34 1010.0
20260504191515 66 233 1.0 2.0 0.00 0.00 0.00 33 1010.1
20260504191011 66 177 0.0 0.0 0.00 0.00 0.00 33 1009.8
20260504190507 66 118 2.0 2.0 0.00 0.00 0.00 33 1009.5
20260504190003 66 178 0.0 1.0 0.00 0.00 0.00 31 1009.5
20260504185501 67 208 2.0 3.0 0.00 0.00 0.00 31 1009.5
20260504184957 69 260 5.0 8.0 0.00 0.00 0.00 28 1009.9
20260504184452 70 238 2.0 2.0 0.00 0.00 0.00 27 1009.2
20260504183948 70 174 2.0 2.0 0.00 0.00 0.00 28 1009.0
20260504183446 70 180 2.0 2.0 0.00 0.00 0.00 30 1009.1
20260504182944 70 193 0.0 1.0 0.00 0.00 0.00 29 1009.2
20260504182440 70 170 1.0 1.0 0.00 0.00 0.00 29 1009.3
20260504181938 70 178 2.0 2.0 0.00 0.00 0.00 29 1009.4
20260504181434 71 184 0.0 1.0 0.00 0.00 0.00 28 1009.3
20260504180933 72 196 1.0 1.0 0.00 0.00 0.00 27 1009.4
20260504180432 73 223 0.0 1.0 0.00 0.00 0.00 26 1009.2
20260504175930 73 161 0.0 1.0 0.00 0.00 0.00 26 1009.3
20260504175426 73 180 0.0 1.0 0.00 0.00 0.00 27 1009.1
20260504174924 74 203 1.0 2.0 0.00 0.00 0.00 26 1009.2
20260504174421 73 178 0.0 1.0 0.00 0.00 0.00 27 1009.2
20260504173919 73 206 2.0 2.0 0.00 0.00 0.00 26 1009.4
20260504173415 73 209 2.0 2.0 0.00 0.00 0.00 26 1009.5
20260504172913 73 221 1.0 2.0 0.00 0.00 0.00 26 1009.7
20260504172408 73 181 1.0 2.0 0.00 0.00 0.00 25 1009.5
20260504171905 73 216 2.0 3.0 0.00 0.00 0.00 25 1009.7
20260504171402 74 254 3.0 3.0 0.00 0.00 0.00 25 1009.5
20260504170859 74 240 3.0 3.0 0.00 0.00 0.00 25 1009.4
20260504170355 73 157 1.0 2.0 0.00 0.00 0.00 27 1009.7
20260504160314 68 177 0.0 0.0 0.00 0.00 0.00 33 1009.9
20260504150739 62 133 1.0 2.0 0.00 0.00 0.00 40 1010.1
20260504150236 60 149 1.0 1.0 0.00 0.00 0.00 41 1010.2
20260504141205 54 185 0.0 0.0 0.00 0.00 0.00 54 1010.6
20260504140702 54 169 0.0 0.0 0.00 0.00 0.00 54 1010.6
20260504140157 53 168 0.0 0.0 0.00 0.00 0.00 53 1010.6
20260504130626 44 177 0.0 0.0 0.00 0.00 0.00 66 1010.7
20260504130123 43 180 0.0 0.0 0.00 0.00 0.00 71 1010.6
20260504110514 40 204 0.0 0.0 0.00 0.00 0.00 71 1010.6
20260504100436 40 204 0.0 0.0 0.00 0.00 0.00 68 1011.1
20260504081829 44 204 0.0 0.0 0.00 0.00 0.00 60 1011.6
20260504081326 44 204 0.0 0.0 0.00 0.00 0.00 60 1011.9
20260504080822 45 204 0.0 0.0 0.00 0.00 0.00 58 1011.8
20260504080319 45 204 0.0 0.0 0.00 0.00 0.00 58 1011.9
20260504070246 50 204 0.0 0.0 0.00 0.00 0.00 50 1012.7
20260504060207 53 204 0.0 0.0 0.00 0.00 0.00 44 1013.2
20260504050635 56 179 0.0 1.0 0.00 0.00 0.00 39 1013.3
20260504050132 57 222 0.0 1.0 0.00 0.00 0.00 39 1013.0
20260504045629 57 189 1.0 1.0 0.00 0.00 0.00 38 1013.0
20260504045129 57 216 1.0 1.0 0.00 0.00 0.00 38 1012.9
20260504044627 58 166 0.0 0.0 0.00 0.00 0.00 37 1013.2
20260504044123 58 288 1.0 3.0 0.00 0.00 0.00 37 1013.3
20260504043621 59 195 1.0 1.0 0.00 0.00 0.00 37 1013.2
20260504043118 59 182 0.0 0.0 0.00 0.00 0.00 37 1013.0
20260504042615 59 148 0.0 1.0 0.00 0.00 0.00 37 1013.0
20260504042112 59 210 0.0 1.0 0.00 0.00 0.00 36 1013.3
20260504041607 60 191 0.0 1.0 0.00 0.00 0.00 35 1013.2
20260504041104 60 306 2.0 3.0 0.00 0.00 0.00 34 1013.0
20260504040601 61 205 2.0 2.0 0.00 0.00 0.00 33 1013.4
20260504040058 62 185 0.0 1.0 0.00 0.00 0.00 32 1013.0
20260504035555 62 56 2.0 3.0 0.00 0.00 0.00 32 1012.9
20260504035051 62 189 1.0 1.0 0.00 0.00 0.00 31 1013.2
20260504034549 61 176 1.0 1.0 0.00 0.00 0.00 30 1013.4
20260504034045 61 175 1.0 1.0 0.00 0.00 0.00 31 1013.2
20260504033544 61 200 1.0 1.0 0.00 0.00 0.00 33 1013.0
20260504033040 62 188 0.0 0.0 0.00 0.00 0.00 33 1013.0
20260504032538 62 205 1.0 1.0 0.00 0.00 0.00 33 1012.7
20260504032034 62 184 0.0 0.0 0.00 0.00 0.00 33 1012.8
20260504031531 62 183 0.0 0.0 0.00 0.00 0.00 32 1012.5
20260504031027 63 178 0.0 0.0 0.00 0.00 0.00 33 1012.5
20260504030525 63 239 1.0 1.0 0.00 0.00 0.00 32 1012.3
20260504030021 62 183 0.0 0.0 0.00 0.00 0.00 33 1012.3
20260504025518 61 186 0.0 1.0 0.00 0.00 0.00 35 1012.5
20260504025015 60 11 4.0 4.0 0.00 0.00 0.00 39 1012.2
20260504024512 61 189 0.0 0.0 0.00 0.00 0.00 38 1011.9
20260504024009 61 182 0.0 0.0 0.00 0.00 0.00 37 1011.8
20260504023505 61 184 0.0 0.0 0.00 0.00 0.00 37 1012.0
20260504023001 61 183 0.0 0.0 0.00 0.00 0.00 36 1012.0
20260504022457 62 184 0.0 0.0 0.00 0.00 0.00 36 1012.0
20260504021954 62 182 0.0 0.0 0.00 0.00 0.00 36 1012.0
20260504021451 63 186 0.0 0.0 0.00 0.00 0.00 34 1011.9
20260504020948 64 182 0.0 0.0 0.00 0.00 0.00 33 1011.9
20260504020445 64 188 0.0 0.0 0.00 0.00 0.00 33 1012.0
20260504015942 65 188 0.0 0.0 0.00 0.00 0.00 32 1011.8
20260504015438 66 182 0.0 0.0 0.00 0.00 0.00 31 1012.1
20260504014934 67 180 0.0 0.0 0.00 0.00 0.00 30 1011.5
20260504014430 68 187 0.0 0.0 0.00 0.00 0.00 29 1011.9
20260504013927 68 172 0.0 0.0 0.00 0.00 0.00 27 1011.9
20260504013426 68 179 0.0 0.0 0.00 0.00 0.00 27 1011.6
20260504012926 68 185 1.0 1.0 0.00 0.00 0.00 28 1011.8
20260504012425 68 179 0.0 0.0 0.00 0.00 0.00 27 1012.0
20260504011922 69 168 1.0 1.0 0.00 0.00 0.00 26 1011.9
20260504011419 68 122 0.0 0.0 0.00 0.00 0.00 29 1011.9
20260504010914 68 193 0.0 0.0 0.00 0.00 0.00 28 1012.1
20260504010411 68 191 0.0 0.0 0.00 0.00 0.00 27 1012.1
20260504005907 69 179 0.0 0.0 0.00 0.00 0.00 27 1011.9
20260504005403 69 173 0.0 1.0 0.00 0.00 0.00 27 1012.0
20260504004901 68 178 0.0 0.0 0.00 0.00 0.00 26 1011.9
20260504004359 69 179 0.0 0.0 0.00 0.00 0.00 27 1012.0
20260504003855 69 177 0.0 0.0 0.00 0.00 0.00 27 1012.2
20260504003352 69 175 0.0 0.0 0.00 0.00 0.00 26 1012.0
20260504002849 70 179 0.0 0.0 0.00 0.00 0.00 26 1012.0
20260504002345 70 182 0.0 0.0 0.00 0.00 0.00 25 1012.0
20260504001843 70 167 0.0 0.0 0.00 0.00 0.00 25 1012.0
20260504001340 70 180 0.0 0.0 0.00 0.00 0.00 27 1012.1
20260504000837 70 186 0.0 0.0 0.00 0.00 0.00 26 1012.2
20260504000334 70 186 0.0 0.0 0.00 0.00 0.00 26 1012.2
20260503235832 71 186 0.0 0.0 0.00 0.00 0.00 26 1012.3
20260503235329 71 186 0.0 0.0 0.00 0.00 0.00 25 1012.3
20260503234826 71 185 0.0 0.0 0.00 0.00 0.00 25 1012.5
20260503234324 71 180 0.0 0.0 0.00 0.00 0.00 24 1012.5
20260503233822 71 177 0.0 0.0 0.00 0.00 0.00 24 1012.3
20260503233317 71 188 0.0 1.0 0.00 0.00 0.00 23 1012.5
20260503232814 72 176 0.0 0.0 0.00 0.00 0.00 23 1012.5
20260503232311 72 184 0.0 1.0 0.00 0.00 0.00 23 1012.5
20260503231809 72 240 3.0 3.0 0.00 0.00 0.00 22 1012.2
20260503231306 72 205 1.0 2.0 0.00 0.00 0.00 22 1012.3
20260503230802 73 159 0.0 0.0 0.00 0.00 0.00 22 1012.2
20260503230259 73 177 0.0 0.0 0.00 0.00 0.00 23 1012.3
20260503225757 73 177 0.0 0.0 0.00 0.00 0.00 22 1012.3
20260503225252 73 162 0.0 0.0 0.00 0.00 0.00 25 1012.1
20260503224749 73 178 0.0 0.0 0.00 0.00 0.00 23 1012.3
20260503224246 73 174 0.0 0.0 0.00 0.00 0.00 24 1012.2
20260503223744 73 152 1.0 1.0 0.00 0.00 0.00 23 1012.0
20260503223241 73 155 1.0 1.0 0.00 0.00 0.00 23 1012.3
20260503222737 73 145 2.0 3.0 0.00 0.00 0.00 23 1012.2
20260503222235 73 189 1.0 1.0 0.00 0.00 0.00 22 1012.3
20260503221734 73 176 0.0 0.0 0.00 0.00 0.00 23 1012.3
20260503221231 73 186 0.0 0.0 0.00 0.00 0.00 23 1012.7
20260503220727 73 139 1.0 1.0 0.00 0.00 0.00 23 1012.6
20260503220224 72 163 0.0 0.0 0.00 0.00 0.00 23 1012.6
20260503215721 73 137 1.0 1.0 0.00 0.00 0.00 24 1012.7
20260503215218 72 333 1.0 2.0 0.00 0.00 0.00 23 1012.9
20260503214716 72 174 1.0 1.0 0.00 0.00 0.00 24 1012.9